[[{"header":{"parameterUnit":"m.s-1","parameterCategory":1,"la1":30.2991,"la2":30.254,"lo1":-89.0895,"lo2":-89.0444,"dy":0.0017,"dx":0.0017,"nx":28,"ny":28,"refTime":"2024-03-21T03:00:00:Z","depth":0,"parameterNumber":2,"parameterNumberName":"U-component_of_WINDS"},"data":[0,0,0,0,0,0,0,0,0,0,0,0,0,0,0,0,0,0,0,0,0,0,0,0,0,0,0,0,0,0,0,0,0,0,0,0,0,0,0,0,0,0,0,0,0,0,0,0,0,0,0,0,0,0,0,0,0,0,-2.3835,-2.3835,0,-2.3845,-2.3845,-2.3845,-2.3775,-2.3773,-2.3771,-2.377,-2.3782,-2.3784,-2.3787,0,0,0,0,0,0,0,0,0,0,0,0,0,-2.3757,-2.3759,-2.3835,-2.3835,-2.3835,-2.3845,-2.3845,-2.3845,-2.3776,-2.3773,-2.3771,-2.3769,-2.3782,-2.3784,-2.3787,0,0,0,0,0,0,0,0,0,0,0,0,0,-2.3781,-2.3759,-2.3835,-2.3801,-2.3798,-2.3845,-2.3845,-2.3845,-2.3776,-2.3773,-2.377,-2.3767,-2.3781,-2.3784,-2.3787,-2.3867,0,0,-2.3797,-2.3799,0,0,0,0,0,0,0,0,-2.378,-2.3784,-2.3806,-2.3804,-2.38,-2.3806,-2.3822,-2.3853,-2.3777,-2.3785,-2.3769,-2.3766,-2.3793,-2.3795,-2.3803,-2.3867,-2.3868,-2.3797,-2.3799,-2.3801,-2.3802,0,0,0,0,0,0,0,-2.3779,-2.3784,-2.3839,-2.3806,-2.3803,-2.3787,-2.3787,-2.3828,-2.3805,-2.3784,-2.3779,-2.3781,-2.3791,-2.38,-2.3803,-2.3868,-2.3797,-2.38,-2.3802,-2.3804,-2.3999,-2.4002,0,0,0,0,0,0,-2.3781,-2.3783,-2.3838,-2.3839,-2.3783,-2.379,-2.3791,-2.3807,-2.3805,-2.3801,-2.3783,-2.3778,-2.3796,-2.3799,-2.3803,-2.3897,-2.3801,-2.3804,-2.3806,-2.3996,-2.4,-2.4003,0,0,0,0,0,0,-2.378,-2.3787,-2.3838,-2.3809,-2.3815,-2.3795,-2.3814,-2.3809,-2.3818,-2.3804,-2.38,-2.3797,-2.3794,-2.3799,-2.3852,-2.3896,-2.3805,-2.3808,-2.3992,-2.3997,-2.4002,-2.4084,0,0,0,0,0,0,-2.3778,-2.3786,-2.3816,-2.3811,-2.3816,-2.3886,-2.3817,-2.3811,-2.3824,-2.3817,-2.3816,-2.3813,-2.3792,-2.3847,-2.3855,-2.3899,-2.3811,-2.3988,-2.3994,-2.4,-2.4078,-2.4091,-2.4103,0,0,0,0,0,-2.3775,-2.3839,-2.3818,-2.3825,-2.3853,-2.3888,-2.3892,-2.3865,-2.3828,-2.3858,-2.3849,-2.3813,-2.389,-2.3853,-2.3861,-2.3907,-2.3985,-2.3993,-2.4,-2.4072,-2.4089,-2.4103,0,0,0,0,0,0,-2.385,-2.3838,-2.3814,-2.3878,-2.3885,-2.3876,-2.3913,-2.3884,-2.3902,-2.3894,-2.3861,-2.3862,-2.3921,-2.3919,-2.3878,-2.3985,-2.3931,-2.3941,-2.3983,-2.3999,-2.4012,-2.4011,-2.3814,0,0,0,0,0,-2.3874,-2.3904,-2.3891,-2.3949,-2.3953,-2.3933,-2.3947,-2.3926,-2.3932,-2.3935,-2.393,-2.3938,-2.3964,-2.3981,-2.4004,-2.4077,-2.4077,-2.4113,-2.4126,-2.4136,-2.4145,-2.4184,-2.42,-2.4027,-2.4027,-2.4027,0,0,-2.3924,-2.3921,-2.3941,-2.3964,-2.3967,-2.3998,-2.3936,-2.3972,-2.3995,-2.3941,-2.399,-2.3987,-2.3994,-2.4057,-2.4085,-2.4058,-2.4193,-2.4146,-2.4154,-2.4157,-2.4193,-2.421,-2.4224,-2.4032,-2.4031,-2.403,0,0,-2.4031,-2.4032,-2.408,-2.4084,-2.4089,-2.4075,-2.4087,-2.4084,-2.4079,-2.4128,-2.4088,-2.4116,-2.4161,-2.4168,-2.4177,-2.4289,-2.4257,-2.4297,-2.4364,-2.4403,-2.4417,-2.4429,-2.4469,-2.4484,-2.4306,-2.4306,-2.4306,0,-2.4093,-2.4138,-2.4109,-2.4148,-2.4159,-2.4111,-2.416,-2.4166,-2.4179,-2.4188,-2.4158,-2.4214,-2.4215,-2.428,-2.4307,-2.4316,-2.4329,-2.4297,-2.4417,-2.4429,-2.444,-2.4478,-2.4493,-2.4311,-2.431,-2.431,-2.4309,0,-2.4214,-2.4247,-2.4285,-2.4298,-2.4314,-2.4358,-2.4336,-2.4356,-2.4334,-2.4324,-2.4376,-2.4375,-2.4398,-2.4412,-2.4391,-2.4474,-2.4457,-2.4423,-2.4368,-2.4461,-2.4497,-2.4511,-2.4318,-2.4316,-2.4314,-2.4313,0,0,-2.4368,-2.4365,-2.438,-2.4385,-2.4388,-2.4413,-2.4456,-2.4477,-2.4495,-2.4506,-2.4541,-2.4581,-2.4549,-2.456,-2.454,-2.4574,-2.4663,-2.4535,-2.4535,-2.4559,-2.4755,-2.4782,-2.4799,-2.4642,-2.4645,-2.4647,-2.4755,0,-2.4473,-2.4545,-2.452,-2.4593,-2.4623,-2.4579,-2.4616,-2.4622,-2.4614,-2.4639,-2.4631,-2.466,-2.4615,-2.4621,-2.4653,-2.4645,-2.4702,-2.4637,-2.4675,-2.4677,-2.4675,-2.4817,-2.4845,-2.4947,-2.4769,-2.4771,-2.4773,0,-2.4605,-2.4621,-2.4697,-2.4695,-2.4707,-2.4741,-2.4759,-2.4783,-2.479,-2.4782,-2.4795,-2.4768,-2.481,-2.4756,-2.4815,-2.4772,-2.4786,-2.4785,-2.4788,-2.4791,-2.4731,-2.4824,-2.4979,-2.4994,-2.4794,-2.4792,-2.4791,0,-2.471,-2.4751,-2.4802,-2.4808,-2.4807,-2.4832,-2.4833,-2.4837,-2.4852,-2.4868,-2.4878,-2.4899,-2.4911,-2.4929,-2.4909,-2.4871,-2.4971,-2.4915,-2.4966,-2.4967,-2.4989,-2.4988,-2.5149,-2.4999,-2.4998,-2.4998,-2.4998,0,-2.483,-2.4878,-2.4849,-2.4881,-2.4934,-2.4906,-2.496,-2.4956,-2.496,-2.499,-2.4954,-2.4983,-2.4955,-2.4982,-2.4967,-2.5019,-2.5024,-2.5019,-2.5015,-2.5023,-2.5024,-2.5032,-2.5024,-2.5002,-2.5001,-2.5,-2.5,0,-2.4956,-2.4938,-2.4991,-2.4986,-2.4986,-2.5026,-2.5022,-2.5052,-2.5041,-2.5081,-2.5089,-2.5073,-2.5103,-2.5085,-2.5116,-2.5106,-2.5174,-2.5159,-2.5171,-2.5167,-2.522,-2.5215,-2.5391,-2.5413,-2.5249,-2.5251,-2.5252,0,-2.5034,-2.507,-2.5069,-2.5087,-2.509,-2.5119,-2.5134,-2.5108,-2.5126,-2.5137,-2.5165,-2.5193,-2.5213,-2.5264,-2.5256,-2.528,-2.5266,-2.5327,-2.527,-2.5277,-2.5268,-2.5266,-2.527,-2.5338,-2.534,-2.5341,-2.5343,0,-2.5173,-2.5163,-2.5186,-2.5206,-2.5225,-2.524,-2.5252,-2.5269,-2.5243,-2.5265,-2.5295,-2.5311,-2.5344,-2.5372,-2.5392,-2.5394,-2.5365,-2.5361,-2.5374,-2.5383,-2.5388,-2.5386,-2.5203,-2.5357,-2.5355,-2.5354,-2.5354,-2.5353,-2.5278,-2.5308,-2.5313,-2.534,-2.5346,-2.5359,-2.5386,-2.538,-2.5404,-2.5428,-2.5412,-2.5448,-2.5455,-2.548,-2.5486,-2.5515,-2.549,-2.551,-2.5514,-2.552,-2.5527,-2.5384,-2.5518,-2.5518,-2.5518,-2.5517,-2.5517,0,-2.5416,-2.5417,-2.5442,-2.546,-2.5482,-2.5452,-2.5464,-2.5484,-2.5517,-2.5525,-2.5546,-2.5582,-2.561,-2.5604,-2.5629,-2.5653,-2.5641,-2.5661,-2.5659,-2.566,-2.5547,-2.5533,-2.5671,-2.5671,-2.5671,-2.5671,-2.5671,-2.5671,-2.549,-2.5541,-2.5531,-2.5585,-2.5585,-2.5621,-2.563,-2.5642,-2.5649,-2.569,-2.5713,-2.5709,-2.5712,-2.5737,-2.5761,-2.5759,-2.577,-2.5796,-2.5789,-2.5683,-2.5668,-2.5653,-2.564,-2.5798,-2.5798,-2.5899,-2.59,-2.5901]},{"header":{"parameterUnit":"m.s-1","parameterCategory":1,"la1":30.2991,"la2":30.254,"lo1":-89.0895,"lo2":-89.0444,"dy":0.0017,"dx":0.0017,"nx":28,"ny":28,"refTime":"2024-03-21T03:00:00:Z","depth":0,"parameterNumber":3,"parameterNumberName":"V-component_of_WINDS"},"data":[0,0,0,0,0,0,0,0,0,0,0,0,0,0,0,0,0,0,0,0,0,0,0,0,0,0,0,0,0,0,0,0,0,0,0,0,0,0,0,0,0,0,0,0,0,0,0,0,0,0,0,0,0,0,0,0,0,0,0.1472,0.1472,0,0.1457,0.1456,0.1456,0.145,0.145,0.145,0.145,0.1434,0.1434,0.1433,0,0,0,0,0,0,0,0,0,0,0,0,0,0.1496,0.1495,0.1472,0.1472,0.1471,0.1457,0.1456,0.1456,0.145,0.145,0.145,0.145,0.1434,0.1434,0.1433,0,0,0,0,0,0,0,0,0,0,0,0,0,0.1483,0.1495,0.1472,0.1467,0.1466,0.1457,0.1456,0.1456,0.145,0.145,0.145,0.145,0.1434,0.1434,0.1433,0.1427,0,0,0.1431,0.1431,0,0,0,0,0,0,0,0,0.1484,0.1482,0.1468,0.1467,0.1466,0.1455,0.1459,0.1447,0.145,0.1456,0.145,0.145,0.1441,0.144,0.1437,0.1427,0.1426,0.1431,0.143,0.143,0.143,0,0,0,0,0,0,0,0.1485,0.1483,0.1466,0.1467,0.1467,0.1465,0.1463,0.1456,0.1448,0.1456,0.1455,0.1454,0.1441,0.1438,0.1436,0.1426,0.1431,0.143,0.143,0.1429,0.1411,0.1411,0,0,0,0,0,0,0.1487,0.1484,0.1466,0.1465,0.1476,0.1465,0.1463,0.1459,0.1449,0.1447,0.1454,0.1453,0.1439,0.1437,0.1436,0.1429,0.143,0.1429,0.1429,0.1411,0.1411,0.1411,0,0,0,0,0,0,0.1487,0.1485,0.1467,0.1474,0.1472,0.1464,0.146,0.1459,0.1455,0.1447,0.1445,0.1452,0.1439,0.1437,0.143,0.1428,0.1429,0.1428,0.1411,0.1411,0.1411,0.1415,0,0,0,0,0,0,0.1488,0.1485,0.1483,0.1474,0.1472,0.1461,0.146,0.1458,0.1454,0.1454,0.1445,0.1443,0.1439,0.1431,0.1429,0.1427,0.1428,0.1411,0.1411,0.1411,0.1415,0.1415,0.1415,0,0,0,0,0,0.1489,0.1484,0.1483,0.1481,0.1469,0.1461,0.1459,0.1454,0.1454,0.1452,0.1447,0.1444,0.1429,0.143,0.1428,0.1426,0.1411,0.1411,0.1411,0.1415,0.1415,0.1415,0,0,0,0,0,0,0.1492,0.1483,0.1481,0.1474,0.1468,0.146,0.1457,0.1454,0.1448,0.1448,0.1442,0.144,0.1434,0.1429,0.1431,0.1421,0.142,0.142,0.1424,0.1424,0.1424,0.1425,0.1427,0,0,0,0,0,0.1492,0.1487,0.1479,0.1474,0.1471,0.1465,0.1461,0.1458,0.1451,0.1449,0.1443,0.1437,0.1431,0.1427,0.1421,0.1415,0.1413,0.1413,0.1413,0.1413,0.1412,0.1409,0.1409,0.1411,0.1411,0.1411,0,0,0.1492,0.1486,0.1483,0.1474,0.1469,0.1464,0.1462,0.1457,0.1453,0.1448,0.1441,0.1437,0.143,0.1423,0.142,0.1419,0.1412,0.1413,0.1413,0.1412,0.1409,0.1409,0.1409,0.1411,0.1411,0.1411,0,0,0.1489,0.1484,0.1479,0.1475,0.1468,0.1464,0.1463,0.1455,0.1452,0.1445,0.1442,0.1437,0.1427,0.1422,0.1419,0.1415,0.1413,0.1414,0.1414,0.1411,0.1411,0.1411,0.141,0.141,0.1413,0.1413,0.1413,0,0.149,0.1482,0.1477,0.1472,0.1468,0.1464,0.146,0.1455,0.1447,0.1444,0.1444,0.1432,0.1427,0.1419,0.1419,0.1416,0.1414,0.1414,0.1411,0.1411,0.1411,0.141,0.141,0.1413,0.1413,0.1413,0.1413,0,0.1483,0.1478,0.1475,0.1467,0.1463,0.1458,0.1453,0.1449,0.1447,0.1443,0.1437,0.143,0.1424,0.1422,0.1419,0.1414,0.1414,0.1413,0.1412,0.1411,0.141,0.141,0.1414,0.1414,0.1414,0.1414,0,0,0.1481,0.1472,0.1471,0.1468,0.146,0.1456,0.1451,0.1445,0.1442,0.1437,0.1433,0.1425,0.1424,0.142,0.1417,0.1414,0.1413,0.1413,0.1413,0.1413,0.1408,0.1409,0.1408,0.1411,0.1411,0.1411,0.1408,0,0.1477,0.1468,0.1464,0.1457,0.1453,0.145,0.1446,0.1441,0.1437,0.1433,0.1429,0.1424,0.1423,0.142,0.1418,0.1413,0.1411,0.1413,0.1407,0.1407,0.1409,0.1408,0.1409,0.1407,0.1408,0.1408,0.1408,0,0.1471,0.1466,0.1459,0.1453,0.1451,0.1447,0.1442,0.1438,0.1433,0.143,0.1426,0.1423,0.1419,0.1419,0.1412,0.1414,0.1411,0.1408,0.1408,0.1407,0.1407,0.1407,0.1406,0.1406,0.1407,0.1407,0.1407,0,0.147,0.1462,0.1457,0.1454,0.1447,0.1445,0.1442,0.1437,0.1434,0.1429,0.1427,0.1422,0.1419,0.1415,0.1411,0.1411,0.1405,0.1404,0.1403,0.1403,0.1401,0.1401,0.14,0.14,0.14,0.14,0.14,0,0.1466,0.1462,0.1457,0.1453,0.1449,0.1445,0.1441,0.1437,0.1433,0.1429,0.1426,0.1423,0.1418,0.1414,0.1411,0.1406,0.1404,0.1403,0.1402,0.1403,0.1403,0.1401,0.1401,0.14,0.14,0.14,0.14,0,0.1464,0.1461,0.1455,0.1449,0.1448,0.1445,0.144,0.1437,0.1434,0.1429,0.1428,0.1423,0.1418,0.1414,0.1407,0.1405,0.1401,0.14,0.1403,0.1402,0.1401,0.1401,0.1398,0.1397,0.1398,0.1398,0.1398,0,0.1462,0.1459,0.1453,0.1451,0.1448,0.1444,0.1441,0.1437,0.1434,0.1429,0.1427,0.1422,0.1418,0.141,0.1406,0.1402,0.14,0.14,0.1399,0.1401,0.1401,0.1401,0.1401,0.1399,0.1399,0.1399,0.1399,0,0.1458,0.1457,0.1453,0.1448,0.1445,0.1441,0.1438,0.1436,0.1432,0.1429,0.1424,0.1421,0.1415,0.141,0.1405,0.1402,0.14,0.14,0.1399,0.14,0.1402,0.1401,0.1403,0.14,0.14,0.14,0.14,0.14,0.1456,0.1453,0.1449,0.1445,0.1442,0.1439,0.1436,0.1433,0.1429,0.1424,0.1423,0.1418,0.1414,0.1407,0.1404,0.1401,0.14,0.14,0.1399,0.1399,0.14,0.1403,0.14,0.14,0.14,0.14,0.14,0,0.1452,0.1449,0.1446,0.1441,0.1438,0.1437,0.1433,0.1431,0.1427,0.1424,0.142,0.1415,0.1411,0.1407,0.1403,0.1401,0.14,0.14,0.14,0.1399,0.14,0.1401,0.1401,0.1401,0.1401,0.1401,0.1401,0.1401,0.1449,0.1445,0.1444,0.1438,0.1436,0.1432,0.143,0.1427,0.1424,0.1419,0.1416,0.1414,0.141,0.1406,0.1402,0.1401,0.1399,0.14,0.1398,0.1399,0.1399,0.1399,0.14,0.1399,0.1399,0.1398,0.1398,0.1398]}]]